Regional Weather Roundup
Issued by NWS

Home | Current Version | Previous Version | Text Only | Print | Product List | Glossary Off
Versions: 1 2 3 4 5 6 7 8 9 10 11 12 13 14 15 16 17 18 19 20 21 22 23 24 25 26 27 28 29 30 31 32 33 34 35 36 37 38 39 40 41 42 43 44 45 46 47 48 49 50

000
ASUS43 KLOT 160303
RWRIL

ILLINOIS REGIONAL WEATHER ROUNDUP
NATIONAL WEATHER SERVICE CHICAGO/ROMEOVILLE IL
900 PM CST FRI DEC 15 2017

NOTE: "FAIR" INDICATES FEW OR NO CLOUDS BELOW 12,000 FEET WITH NO
SIGNIFICANT WEATHER AND/OR OBSTRUCTIONS TO VISIBILITY.

* THESE STATIONS ARE NOT UNDER NWS QUALITY CONTROL. THEY ALSO MAY NOT
  REPORT WEATHER SUCH AS PRECIPITATION OR FOG.

ILZ001-002-007-009-015-016-024-160400-
NORTHWEST ILLINOIS

CITY           SKY/WX    TMP DP  RH WIND       PRES   REMARKS
MOLINE         CLOUDY    37  21  52 SW14      29.88F WCI  28
STERLING*      CLOUDY    35  22  58 VRB6      29.89F WCI  30
$$

ILZ003-004-008-010-011-017-018-160400-
NORTH CENTRAL ILLINOIS

CITY           SKY/WX    TMP DP  RH WIND       PRES   REMARKS
ROCKFORD       CLOUDY    34  23  64 SW10      29.89F WCI  26
FREEPORT*      CLOUDY    33  24  69 SW15      29.87F WCI  23
ROCHELLE*      CLOUDY    33  24  69 S10       29.89F WCI  25
DE KALB*       CLOUDY    33  24  69 SW10      29.89F WCI  25
$$

ILZ005-006-012>014-019>023-160400-
NORTHEAST ILLINOIS

CITY           SKY/WX    TMP DP  RH WIND       PRES   REMARKS
CHICAGO-OHARE  CLOUDY    34  21  59 SW9       29.89F WCI  27
CHICAGO-MIDWAY CLOUDY    35  22  58 SW12      29.92S WCI  27
AURORA         CLOUDY    35  22  58 SW14      29.91S WCI  26
LANSING*       CLOUDY    34  23  64 SW10      29.94S WCI  26
JOLIET*        CLOUDY    37  23  57 SW7       29.93S WCI  31
WAUKEGAN       CLOUDY    32  26  78 SW8       29.87F WCI  25
DUPAGE AIRPORT CLOUDY    33  22  63 SW13      29.89F WCI  24
WHEELING       CLOUDY    35  23  61 SW7       29.91S WCI  29
NORTHERLY ISL    N/A     35  20  54 SW6         N/A  WCI  30
$$

LMZ740>746-160400-
SOUTHERN LAKE MICHIGAN

STATION/POSITION SKY/WX   TEMP    WIND        PRES    VSBY  WAVE
                          AIR SEA DIR/SP/G                  HT/PER
                          (F)     (DEG/KT/KT) (MB)    (MI)  (FT/S)
HARRISON CRIB              36     220/ 12/ 16   N/A
BURNHAM HARBOR             35     210/  7/ 10   N/A
CALUMET HARBOR             34     200/  7/ 10 1012.7F
BURNS HARBOR               35     210/ 12/ 16 1013.9F
MICHIGAN CITY              34     210/ 17/ 19   N/A
$$

ILZ025>027-034>036-040-047-049-050-058-095>099-160400-
WEST-CENTRAL ILLINOIS

CITY           SKY/WX    TMP DP  RH WIND       PRES   REMARKS
QUINCY         CLEAR     34  21  59 S10       29.96F WCI  26
GALESBURG*     CLOUDY    32  23  69 S10       29.93F WCI  24
MACOMB*        CLOUDY    35  21  57 SW13      29.97S WCI  26
PITTSFIELD*    CLOUDY    35  23  61 S10       30.00S WCI  27
$$

ILZ028>032-037-038-041>044-048-051>054-059>061-160400-
CENTRAL ILLINOIS

CITY           SKY/WX    TMP DP  RH WIND       PRES   REMARKS
BLOOMINGTON    MOCLDY    32  20  61 SW14G20   29.98S WCI  22
DECATUR        CLEAR     31  21  66 SW10      30.02S WCI  22
PEORIA         MOCLDY    33  21  61 SW10      29.97S WCI  25
LACON*         MOCLDY    33  22  65 SW7       29.94F WCI  27
LINCOLN*       CLOUDY    32  22  66 S3        30.00S
SPRINGFIELD    CLOUDY    34  21  59 S13       30.01F WCI  25
TAYLORVILLE    NOT AVBL
$$

ILZ033-039-045-046-055>057-062-063-160400-
EAST-CENTRAL ILLINOIS

CITY           SKY/WX    TMP DP  RH WIND       PRES   REMARKS
CHAMPAIGN      CLEAR     29  21  72 S12       30.01S WCI  19
DANVILLE*      MOCLDY    32  21  64 SW9       29.99R WCI  24
MATTOON        CLEAR     32  23  69 S9        30.03S WCI  24
$$

ILZ079-100>102-160400-
SOUTHWEST ILLINOIS

CITY           SKY/WX    TMP DP  RH WIND       PRES   REMARKS
ALTON          CLEAR     34  25  69 SW7       30.05F WCI  28
BELLEVILLE     CLEAR     27  19  72 S3        30.06F
CAHOKIA*       CLEAR     29  20  69 S5        30.07F WCI  24
SPARTA*        CLEAR     31  25  78 S3        30.11S
$$

ILZ064>066-069>071-074>076-080>082-084>086-088>090-092>094-160400-
SOUTH-CENTRAL ILLINOIS

CITY           SKY/WX    TMP DP  RH WIND       PRES   REMARKS
CARBONDALE     PTCLDY    29  25  85 CALM      30.11R
CAIRO*         CLEAR     39  29  67 S9        30.13S WCI  33
EFFINGHAM*     CLEAR     32  24  72 S3        30.07F
MARION         CLEAR     30  26  83 CALM      30.12R
MT. VERNON     PTCLDY    23  21  92 CALM      30.10S
CENTRALIA*     CLEAR     29  25  84 S7        30.08S WCI  22
SALEM*         CLEAR     32  24  72 S7        30.08S WCI  26
METROPOLIS*    CLEAR     37  28  69 S5        30.13S WCI  33
$$

ILZ067-068-072-073-078-083-087-091-160400-
SOUTHEAST ILLINOIS

CITY           SKY/WX    TMP DP  RH WIND       PRES   REMARKS
LAWRENCEVILLE  CLEAR     29  23  78 S9        30.10S WCI  20
FLORA*         PTCLDY    31  25  78 S7        30.09F WCI  24
HARRISBURG*    CLEAR     31  27  83 CALM      30.12R
ROBINSON*      CLEAR     32  23  71 SW9       30.08F WCI  24
CARMI*         PTCLDY    31  27  83 S6        30.11R WCI  26
$$

ABBREVIATIONS USED IN REMARKS
   TC - TEMPERATURE IN CELSIUS
  WCI - WIND CHILL INDEX
   HX - HEAT INDEX
  VSB - VISIBILITY
$$




USA.gov is the U.S. government's official web portal to all federal, state and local government web resources and services.